Theta_e
346 349 351 349 352 354 352 353 352 351 350 349 352 353 348 352 351 351 351 346 342 339 338 337 337 341 343 344 344 343 343 343 343 344 344 343 342 341 340 339 339 338 338
349 351 349 348 349 352 352 352 354 352 348 351 351 350 352 349 350 351 351 349 341 343 341 341 338 337 337 337 339 341 340 341 341 342 342 343 344 344 343 342 340 339 339
350 346 349 349 350 354 353 352 353 353 352 346 350 348 351 349 351 348 349 346 346 344 346 346 342 339 337 335 334 336 339 340 340 341 342 342 343 344 343 342 341 341 340
350 348 346 349 350 350 352 354 354 352 350 350 347 343 350 350 350 344 347 348 351 345 346 348 347 340 339 335 332 330 333 336 339 340 341 342 342 342 342 342 342 341 341
352 351 350 348 352 350 353 352 354 351 350 351 349 350 349 348 347 348 349 349 350 349 347 349 348 347 343 346 333 329 328 331 333 336 337 337 337 339 339 341 342 342 341
351 352 351 350 351 352 351 351 351 349 348 351 348 351 344 345 349 348 346 345 344 347 351 351 350 349 347 349 337 331 328 326 329 333 332 332 332 333 335 336 338 340 342
352 354 351 352 349 350 352 350 351 348 348 349 348 349 348 348 340 346 345 348 347 349 349 351 351 351 349 348 344 340 331 328 326 330 330 328 327 324 324 327 332 334 335
351 354 350 350 349 350 350 349 349 348 347 348 349 349 345 344 342 345 342 342 345 347 345 349 349 349 348 350 348 346 339 332 329 327 328 328 324 323 323 322 322 323 327
351 352 350 349 349 352 351 351 348 346 348 340 350 350 346 344 340 342 345 341 346 347 348 350 348 349 349 351 347 347 342 338 333 329 327 325 324 323 322 321 320 321 322
351 351 349 349 347 352 351 348 350 350 344 344 350 351 350 350 347 343 341 339 340 342 349 348 350 351 350 349 350 348 345 344 341 336 331 327 325 323 322 320 320 321 320
350 348 347 346 348 350 351 351 346 349 348 346 346 350 350 351 348 346 345 340 340 343 344 347 348 351 349 349 346 350 349 347 344 342 337 331 327 324 323 321 320 321 321
348 348 347 346 350 351 350 353 345 348 347 349 345 349 350 349 349 348 347 348 346 344 347 349 351 351 349 348 342 344 351 351 351 345 342 337 332 327 325 323 321 320 321
349 349 348 347 349 352 351 352 348 345 346 340 347 346 347 349 347 345 345 343 341 344 342 346 348 348 349 348 345 347 347 348 349 348 343 341 337 333 329 326 323 321 320
351 350 347 347 352 352 351 351 349 347 346 349 348 350 349 348 346 346 341 343 347 348 345 338 341 339 344 343 339 344 345 346 342 345 347 342 340 337 335 332 329 325 323
349 351 350 347 348 350 352 350 348 337 342 349 351 351 350 348 348 346 347 346 343 346 345 337 346 343 338 337 337 336 338 346 349 342 347 346 341 340 338 337 334 331 328
347 348 352 348 347 348 351 345 347 347 347 342 348 350 351 348 346 345 346 343 340 338 344 345 344 344 342 339 338 338 336 337 339 339 345 347 343 341 340 340 339 337 334
345 350 348 347 351 348 346 345 348 348 347 348 346 349 349 347 347 343 347 343 337 339 339 337 342 344 343 343 344 343 346 346 346 347 347 347 347 347 346 342 342 342 342
336 341 351 349 351 349 348 346 347 345 345 346 346 345 345 345 347 345 346 339 342 345 345 342 345 347 346 347 347 347 345 344 346 347 346 346 347 347 349 349 348 343 341
340 341 342 343 348 347 346 346 345 345 348 345 345 344 345 343 344 342 343 344 346 345 343 346 342 345 344 339 338 343 344 345 342 343 347 347 347 347 347 346 346 346 345
337 341 341 342 336 344 343 344 344 345 345 344 344 344 345 345 346 346 346 345 343 343 334 334 337 340 337 338 337 337 342 346 343 344 346 347 344 344 344 347 349 347 346
340 336 337 341 341 339 341 339 340 343 342 339 341 342 342 341 342 342 342 342 341 336 331 331 333 335 334 328 328 331 337 340 340 340 339 343 346 343 343 344 348 345 338
335 336 342 342 341 340 340 335 335 338 338 339 337 335 334 333 334 335 334 333 333 334 334 328 324 325 327 322 319 321 323 325 325 328 327 327 331 333 335 339 341 339 338
337 338 338 339 338 338 339 339 337 336 335 330 327 327 327 332 333 333 332 334 332 331 330 325 322 326 325 327 328 325 323 325 329 329 335 336 334 329 328 334 337 334 332
336 338 338 339 338 338 336 334 331 330 330 329 326 325 323 323 320 321 322 322 322 326 319 322 321 321 320 320 326 325 325 322 320 322 329 330 323 319 327 322 324 330 334
336 337 338 337 336 334 331 325 320 319 319 320 319 320 323 323 322 322 322 323 323 323 323 321 321 317 317 318 317 318 319 320 318 316 317 321 320 332 333 330 328 330 334
335 334 332 330 328 327 326 325 322 319 318 318 319 322 323 322 323 324 324 324 324 322 319 316 316 319 323 323 322 322 324 326 327 327 327 329 330 331 333 335 334 335 335
Wind_Speed
7 7 7 5 6 7 9 7 6 3 4 3 5 8 9 10 10 9 12 8 6 5 5 6 7 9 11 14 15 14 15 15 16 17 19 20 20 20 19 18 17 17 16
7 10 9 9 7 10 8 12 11 3 5 4 4 9 11 11 6 9 11 7 9 3 3 3 4 6 7 8 12 13 14 14 14 16 17 19 20 20 20 20 19 18 17
9 9 9 8 10 9 10 11 11 9 4 7 9 8 12 18 11 12 13 10 11 8 4 4 3 4 5 5 8 12 13 13 14 14 15 16 18 19 19 20 21 19 18
15 7 10 13 12 12 11 11 12 8 8 8 8 14 15 16 9 12 13 16 14 12 10 6 5 4 3 3 5 7 11 12 12 13 13 14 15 16 17 19 20 20 19
15 10 8 8 13 13 14 13 14 12 9 7 5 8 15 14 13 13 16 19 14 15 14 11 7 6 4 4 4 4 7 8 10 10 10 11 12 13 15 16 17 19 20
21 16 11 11 14 14 13 14 13 11 9 6 8 8 11 14 8 17 14 16 16 16 15 14 9 7 5 6 4 4 4 6 7 7 6 7 8 9 10 11 13 14 17
17 17 13 11 15 18 14 12 11 12 12 8 9 9 9 16 14 17 21 21 20 19 15 15 11 9 10 7 5 5 4 5 6 7 5 5 6 7 9 11 12 13 13
12 16 16 14 14 12 11 11 9 9 9 10 10 11 5 12 21 20 20 26 20 21 16 14 11 10 8 8 9 7 6 5 6 7 7 6 6 6 7 10 12 13 15
16 18 16 17 17 14 14 10 8 9 9 9 9 8 5 7 7 16 17 25 25 20 19 18 15 12 8 7 8 9 7 6 5 7 7 7 7 7 7 8 9 11 12
21 20 17 18 17 16 13 12 14 12 10 10 8 11 10 13 7 6 9 16 18 15 21 22 19 16 13 9 9 7 7 8 8 7 8 7 6 7 7 7 7 8 10
20 18 18 19 18 16 15 15 13 12 12 12 12 11 11 12 11 10 5 5 12 16 20 20 21 20 17 13 11 6 7 9 9 8 8 8 7 6 6 6 6 6 7
18 21 22 19 17 19 17 16 13 12 13 14 13 15 14 11 10 7 7 4 6 8 14 16 13 14 18 19 13 12 8 9 10 11 10 9 8 7 7 7 6 6 6
22 21 19 18 19 18 19 17 15 14 13 14 14 14 16 17 14 14 14 11 16 16 10 13 11 9 17 17 17 15 13 11 10 11 12 12 10 9 9 8 7 7 7
19 19 21 19 17 21 23 24 19 15 14 17 16 15 14 14 16 14 8 16 12 18 15 20 19 15 19 18 16 21 15 15 13 12 12 14 13 12 12 11 10 9 8
23 21 25 26 25 24 26 22 21 12 17 16 18 15 17 14 12 12 14 14 17 13 14 21 14 21 17 23 26 23 19 23 17 17 20 16 16 14 15 14 13 11 10
24 27 27 27 25 22 22 21 18 14 15 15 16 16 14 14 12 11 16 10 18 14 7 3 5 20 21 27 23 20 18 18 23 22 20 19 17 18 18 17 16 14 13
24 35 33 32 27 24 24 21 21 15 14 16 16 12 10 13 14 12 12 11 15 17 17 7 17 17 27 21 17 17 16 18 19 18 19 18 16 18 19 17 15 15 16
31 34 29 29 30 27 27 21 18 15 18 15 12 13 12 13 14 10 14 14 13 14 14 16 16 16 15 13 13 14 11 11 14 15 14 16 16 15 16 16 16 15 14
32 28 29 26 41 28 24 18 17 18 17 14 11 9 10 12 12 13 16 18 14 12 10 13 14 13 12 11 12 15 14 11 13 13 17 17 18 18 17 17 17 17 17
17 24 17 9 3 10 17 17 17 13 11 10 9 8 12 12 12 13 17 13 12 9 9 11 13 15 15 15 15 14 15 17 17 15 16 17 17 17 18 19 21 21 21
6 9 7 6 9 13 3 7 10 3 5 10 10 6 7 10 12 12 10 9 11 11 10 13 15 19 20 19 20 20 20 20 20 18 18 19 22 23 23 23 23 22 20
2 0 3 6 16 18 14 11 15 12 11 9 6 6 7 7 5 7 7 7 8 8 9 11 12 14 14 14 19 20 19 20 23 22 22 25 27 26 23 21 21 22 23
2 4 4 2 3 5 4 8 10 8 8 8 9 8 8 8 8 7 7 7 8 9 11 14 17 17 19 17 20 19 20 22 22 19 21 25 23 27 25 25 24 26 24
6 6 6 6 3 4 5 3 5 8 8 8 7 7 8 10 10 11 11 11 11 11 9 13 15 18 22 24 23 23 24 24 25 25 23 32 25 26 23 24 25 21 23
8 7 4 3 3 4 5 4 4 5 6 4 2 3 4 6 7 8 10 10 10 10 13 17 18 19 18 20 21 25 27 27 30 30 28 30 27 21 18 15 14 18 19
6 6 7 6 6 5 7 7 8 7 4 1 2 3 5 6 8 10 11 13 14 16 17 15 13 12 12 13 14 17 16 16 17 24 16 18 19 21 22 19 18 17 20
Wind_Direction
207 250 258 267 287 285 278 288 279 273 275 284 254 259 247 249 261 257 249 240 242 259 281 279 268 252 245 245 243 245 244 243 240 238 239 242 243 243 239 238 234 235 232
224 245 256 243 251 280 280 299 269 253 303 282 251 240 243 243 249 269 218 253 231 239 283 280 266 255 252 247 244 243 243 244 244 239 238 240 243 245 245 244 242 237 235
255 260 258 238 244 269 270 296 285 279 268 276 263 239 260 250 224 229 227 245 229 225 255 269 267 260 251 249 253 249 243 244 248 245 244 242 242 244 243 242 244 243 238
251 285 261 256 239 241 270 278 290 277 277 293 278 239 245 233 236 243 222 232 227 231 234 250 306 308 297 293 271 251 245 241 239 238 240 242 242 244 243 241 241 243 244
241 248 266 239 247 245 263 259 261 271 258 252 266 256 240 228 231 233 234 231 222 230 236 245 268 311 318 322 315 271 244 239 244 238 238 242 244 245 244 243 241 241 241
252 237 268 251 257 269 267 272 257 280 231 257 268 278 230 231 228 233 248 244 225 230 231 240 254 287 301 315 315 322 272 252 238 235 232 236 242 250 250 245 242 243 243
264 236 258 263 264 275 260 265 270 276 242 230 249 251 229 251 230 226 239 230 251 237 232 237 240 268 270 295 300 315 304 280 256 245 231 244 247 251 259 258 247 241 238
243 239 261 271 279 259 278 284 254 245 249 252 263 274 272 267 232 224 247 234 234 235 230 239 241 244 272 272 285 297 308 306 287 270 265 261 270 273 270 264 257 248 241
244 250 276 284 268 260 266 276 270 270 249 239 247 243 225 246 260 237 216 213 239 234 224 235 240 249 260 270 276 274 285 294 294 280 270 266 273 283 282 267 259 253 249
243 250 264 280 266 255 260 275 269 270 244 235 241 246 258 262 257 286 282 243 230 245 232 243 242 240 253 259 264 271 262 281 285 287 276 264 263 278 284 278 267 257 246
248 253 262 267 268 259 268 281 270 261 247 234 237 259 266 265 270 271 314 242 246 249 236 233 240 239 239 249 254 250 239 270 275 275 279 273 263 268 278 281 273 258 247
249 256 259 266 261 255 267 269 268 246 258 254 258 252 267 269 272 285 250 286 254 258 247 236 250 250 240 239 235 242 254 241 267 287 289 281 276 270 274 275 272 265 255
249 252 259 266 251 254 261 258 264 264 277 257 255 253 266 266 274 272 246 214 239 261 232 230 248 249 257 255 258 251 249 254 252 269 280 282 280 278 273 272 270 268 260
255 263 266 265 257 274 251 251 244 251 260 259 255 265 271 269 257 269 243 213 203 245 240 207 218 210 246 234 257 250 252 249 256 259 270 273 272 271 270 268 265 262 262
262 265 263 266 266 266 253 248 264 244 242 256 261 263 276 273 246 251 258 238 197 220 213 212 234 215 245 246 227 247 262 246 252 270 258 257 259 261 267 270 271 267 265
274 271 269 271 275 265 240 241 246 243 229 258 254 255 259 273 252 250 266 224 206 213 183 214 228 213 227 231 235 255 246 256 267 267 249 253 253 257 260 264 267 270 271
298 267 258 253 258 255 238 255 234 238 250 246 248 248 253 247 244 252 247 199 203 212 206 243 239 240 222 230 235 237 256 266 268 264 242 256 257 260 257 258 263 269 269
278 257 261 259 250 238 244 237 239 242 254 251 255 253 244 232 231 232 221 211 218 224 214 219 232 229 220 236 248 250 261 280 276 264 248 245 254 258 256 260 265 263 268
266 261 288 279 242 226 224 217 227 236 237 237 229 238 245 233 220 228 250 240 231 232 231 235 231 227 233 239 266 258 252 266 277 266 253 245 252 255 257 256 255 261 268
266 262 289 271 113 214 221 227 231 228 222 224 227 228 229 234 220 211 221 233 233 217 248 250 245 239 237 239 250 258 251 253 261 262 258 253 250 255 257 254 256 258 265
107 333 254 273 194 208 308 359 343 269 270 264 281 256 265 254 237 236 217 241 260 265 266 265 258 254 252 251 256 254 253 253 253 257 259 257 258 263 260 256 256 258 261
350 40 324 268 244 246 248 292 312 263 254 217 226 230 224 246 245 229 223 220 240 269 277 278 275 276 270 258 256 257 261 265 272 262 267 259 258 259 260 259 253 254 261
171 127 138 179 209 175 146 165 194 209 208 203 188 201 214 216 227 227 225 233 253 275 290 287 286 289 286 285 279 275 272 272 274 275 273 274 268 273 272 268 261 266 271
165 156 150 139 133 115 119 152 181 196 204 208 214 230 236 244 242 250 253 251 249 267 263 275 286 290 286 284 281 282 279 277 273 274 279 283 284 281 289 271 262 255 256
146 151 170 159 133 130 121 123 137 151 155 183 212 240 252 264 269 267 275 281 279 271 269 273 265 280 284 281 279 277 276 282 285 287 288 282 284 285 288 280 262 261 262
144 159 154 142 129 116 99 77 79 77 97 181 268 283 288 294 295 294 290 290 291 291 285 278 266 259 266 267 271 268 271 275 281 288 286 298 296 287 290 274 280 274 268